Regional Weather Roundup
Issued by NWS

Home | Current Version | Previous Version | Text Only | Print | Product List | Glossary On
Versions: 1 2 3 4 5 6 7 8 9 10 11 12 13 14 15 16 17 18 19 20 21 22 23 24 25 26 27 28 29 30 31 32 33 34 35 36 37 38 39 40 41 42 43 44 45 46 47 48 49 50
000
ASUS46 KSEW 310510
RWRWA

WASHINGTON REGIONAL WEATHER ROUNDUP
NATIONAL WEATHER SERVICE SEATTLE WA
1000 PM PDT THU JUL 30 2015

NOTE:"FAIR" INDICATES FEW OR NO CLOUDS BELOW 12,000 FEET WITH NO
SIGNIFICANT WEATHER AND/OR OBSTRUCTIONS TO VISIBILITY.

WAZ505-507>509-310600-
SEATTLE, TACOMA, EVERETT, AND VICINITY

CITY           SKY/WX    TMP DP  RH WIND       PRES   REMARKS
EVERETT        FAIR      70  49  47 N8        30.05R
BOEING FIELD   FAIR      81  45  28 CALM      30.01R
RENTON         FAIR      77  58  51 NW5       30.01R
SEATAC AIRPORT FAIR      80  44  27 N7        30.04R
JBLM-MCCHORD   FAIR      74  46  37 CALM      30.03R
PUYALLUP       FAIR      68  48  49 CALM      30.04R
BREMERTON      FAIR      68  46  45 CALM      30.06R
JBLM-FT LEWIS  FAIR      80  41  25 VRB1      30.02R
TACOMA NARROWS FAIR      80  42  25 N6        30.02R
$$

WAZ001-503-506-510-514-515-310600-
NORTH INTERIOR

CITY           SKY/WX    TMP DP  RH WIND       PRES   REMARKS
BELLINGHAM     FAIR      67  52  58 S3        30.02R
FRIDAY HARBOR    N/A     60  50  69 CALM      30.04R
EASTSOUND      FAIR      66  54  63 CALM      30.01R
PORT ANGELES   FAIR      71  45  39 W8        30.06R
PORT TOWNSEND  FAIR      75  48  38 W9        30.03R
NAS WHIDBEY    FAIR      60  52  74 SW3       30.08R
ARLINGTON      FAIR      72  48  43 NW7       30.05R
BURLINGTON     CLEAR     64  52  63 CALM      30.04R
$$

WAZ020-022-039-040-504-511-512-310600-
SOUTHWEST INTERIOR

CITY           SKY/WX    TMP DP  RH WIND       PRES   REMARKS
SHELTON        FAIR      74  49  41 CALM      30.01R
OLYMPIA        FAIR      74  45  35 CALM      30.02R
CHEHALIS       FAIR      77  54  44 CALM      30.02R
KELSO          FAIR      79  52  38 CALM      30.03R
VANCOUVER      FAIR      88  49  25 NW9       29.95R
SCAPPOOSE, OR  FAIR      86  50  28 NW6       29.96R
PORTLAND, OR   FAIR      87  54  32 NW7       29.96R
$$

WAZ021-516-517-310600-
WASHINGTON COAST

CITY           SKY/WX    TMP DP  RH WIND       PRES   REMARKS
FORKS          FAIR      64  54  69 NW5       30.08R
HOQUIAM        FAIR      64  55  72 SW6       30.05R
ASTORIA, OR    FAIR      62  55  77 SE6       30.05R
$$

WAZ019-023-024-040-518-519-310600-
CASCADE MOUNTAINS AND COLUMBIA GORGE

CITY           SKY/WX    TMP DP  RH WIND       PRES   REMARKS
TROUTDALE, OR  FAIR      88  48  25 W5        29.94R
THE DALLES, OR FAIR      89  43  20 W6        29.92R
$$

WAZ026-027-041>044-520-521-310600-
EAST SLOPES

CITY           SKY/WX    TMP DP  RH WIND       PRES   REMARKS
OMAK           FAIR      82  36  19 SE7       30.00R
WENATCHEE      FAIR      83  43  24 E6        30.00R
ELLENSBURG     FAIR      84  39  20 NW13      30.04R
YAKIMA         FAIR      75  50  41 SW8       30.00R
$$

WAZ028-034-035-310600-
COLUMBIA BASIN

CITY           SKY/WX    TMP DP  RH WIND       PRES   REMARKS
EPHRATA        FAIR      80  38  22 CALM      30.00R
MOSES LAKE     FAIR      83  42  23 CALM      30.00R
PASCO          FAIR      74  60  61 N5        29.94R
HERMISTON, OR  FAIR      77  42  28 SE5       29.95R
$$

WAZ036>038-310600-
NORTHEAST WASHINGTON

CITY           SKY/WX    TMP DP  RH WIND       PRES   REMARKS
SPOKANE GEIGER FAIR      77  31  18 W5        30.09R
SPOKANE FELTS  FAIR      77  33  20 NE5       30.07R
FAIRCHILD AFB  FAIR      79  29  16 CALM      30.09R
COEURDALENE,ID FAIR      73  45  35 E6        30.08R
DEER PARK      FAIR      68  34  28 CALM      30.08R
$$

WAZ029>033-310600-
SOUTHEAST WASHINGTON

CITY           SKY/WX    TMP DP  RH WIND       PRES   REMARKS
PULLMAN        FAIR      67  32  27 CALM      30.12R
LEWISTON, ID   FAIR      82  30  15 S7        30.02R
WALLA WALLA    FAIR      83  33  16 E8        29.99R
PENDLETON, OR  FAIR      78  28  16 E8        30.01R
$$


USA.gov is the U.S. government's official web portal to all federal, state and local government web resources and services.